{"data":{"norad_id":63251,"epoch":"2026-05-24T16:56:25.444320Z","epoch_age_seconds":96521,"freshness":"FRESH","line1":"1 63251U 25052AT  26144.70585005  .00002095  00000+0  19552-3 0  9998","line2":"2 63251  97.6880  36.6213 0001894 337.6025  22.5113 14.95258303 65124","mean_motion":14.95258303,"eccentricity":0.0001894,"inclination_deg":97.688,"raan_deg":36.6213,"arg_perigee_deg":337.6025,"mean_anomaly_deg":22.5113,"bstar":0.00019552,"rev_number":6512,"period_min":96.304430954228,"perigee_km":580.25294948503,"apogee_km":582.8892869202,"semimajor_km":6959.7081182026,"source":"CELESTRAK","updated_at":"2026-05-25T13:38:03.606044Z"}}